Home   Weather   37°34'N, 97°19'W   Past weeks
Flag for USA

Past Weather in 37°34'N, 97°19'W, USA — Yesterday and Last 2 Weeks

Now
84 °F

Sunny.


Feels Like: 82 °F
Forecast: 83 / 60 °F
Wind: 8 mph from Northeast

Location: Wichita Mid-Continent Airport

Current Time: Jul 23, 2019 at 3:49:51 pm

Latest Report: Jul 23, 2019 at 2:53 pm


Visibility: 10 mi

Pressure: 30.18 "Hg

Humidity: 33%

Dew Point: 52 °F

Location of 37°34'N, 97°19'WLocation

Past Weather in 37°34'N, 97°19'W — Graph

°F

37°34'N, 97°19'W Temperature Yesterday

Maximum temperature yesterday: 87 °F (at 1:53 pm)
Minimum temperature yesterday: 72 °F (at 1:53 am)
Average temperature yesterday: 78 °F

High & Low Weather Summary for the Past Weeks

 TemperatureHumidityPressure
High101 °F (Jul 17, 3:53 pm)90% (Jul 10, 5:53 am)30.27 "Hg (Jul 10, 5:53 am)
Low59 °F (Jul 23, 5:53 am)31% (Jul 22, 5:53 pm)29.69 "Hg (Jul 18, 5:53 pm)
Average82 °F61%29.92 "Hg
* Reported Jul 8 1:15 pm — Jul 23 1:53 pm, 37°34'N, 97°19'W. Weather by CustomWeather, © 2019

Note: Actual official high and low records may vary slightly from our data, if they occured in-between our weather recording intervals... More about our weather records

Advertising

37°34'N, 97°19'W Weather History for the Previous 24 Hours

Scroll right to see more
 ConditionsComfort  
Time TempWeatherWind HumidityBarometerVisibility
1:53 pm
Tue, Jul 23
82 °FPassing clouds.6 mph33%30.20 "Hg10 mi
12:53 pm80 °FPassing clouds.8 mph39%30.22 "Hg10 mi
11:53 am79 °FPassing clouds.13 mph42%30.24 "Hg10 mi
10:53 am76 °FPassing clouds.13 mph48%30.25 "Hg10 mi
9:53 am75 °FSunny.6 mph50%30.27 "Hg10 mi
8:53 am70 °FSunny.6 mph61%30.27 "Hg10 mi
7:53 am65 °FSunny.5 mph73%30.27 "Hg10 mi
6:53 am62 °FSunny.6 mph78%30.25 "Hg10 mi
5:53 am59 °FClear.3 mph84%30.24 "Hg10 mi
4:53 am64 °FClear.6 mph73%30.22 "Hg10 mi
3:53 am65 °FClear.6 mph73%30.22 "Hg10 mi
2:53 am67 °FClear.7 mph66%30.22 "Hg10 mi
1:53 am69 °FClear.8 mph61%30.22 "Hg10 mi
12:53 am70 °FClear.8 mph59%30.22 "Hg10 mi
11:53 pm
Mon, Jul 22
72 °FClear.9 mph55%30.21 "Hg10 mi
10:53 pm74 °FClear.10 mph52%30.19 "Hg10 mi
9:53 pm76 °FPassing clouds.14 mph48%30.16 "Hg10 mi
8:53 pm79 °FPassing clouds.14 mph42%30.14 "Hg10 mi
7:53 pm82 °FPassing clouds.16 mph40%30.12 "Hg10 mi
6:53 pm84 °FPassing clouds.17 mph35%30.11 "Hg10 mi
5:53 pm86 °FPassing clouds.16 mph31%30.10 "Hg10 mi
4:53 pm87 °FPassing clouds.18 mph36%30.11 "Hg10 mi
3:53 pm85 °FScattered clouds.21 mph40%30.12 "Hg10 mi
Weather by CustomWeather, © 2019

See weather overview